Year,Month,Day,Hour,Minute,Value (Times are PST for windspeed in km/hr)
2010,01,06,00,04,74.50
2010,01,06,00,05,74.50
2010,01,06,00,06,74.50
2010,01,06,00,07,74.50
2010,01,06,00,08,74.50
2010,01,06,00,09,74.50
2010,01,06,00,10,74.50
2010,01,06,00,11,74.50
2010,01,06,00,12,74.50
2010,01,06,00,13,74.50
2010,01,06,00,14,74.50
2010,01,06,00,15,74.50
2010,01,06,00,16,74.50
2010,01,06,00,17,74.50
2010,01,06,00,18,74.50
2010,01,06,00,19,71.50
2010,01,06,00,20,71.50
2010,01,06,00,21,71.50
2010,01,06,00,22,71.50
2010,01,06,00,23,71.50
2010,01,06,00,24,71.50
2010,01,06,00,25,71.50
2010,01,06,00,26,71.50
2010,01,06,00,27,71.50
2010,01,06,00,28,71.50
2010,01,06,00,29,71.50
2010,01,06,00,30,71.50
2010,01,06,00,31,71.50
2010,01,06,00,32,71.50
2010,01,06,00,33,71.50
2010,01,06,00,34,86.50
2010,01,06,00,35,86.50
2010,01,06,00,36,86.50
2010,01,06,00,37,86.50
2010,01,06,00,38,86.50
2010,01,06,00,39,86.50
2010,01,06,00,40,86.50
2010,01,06,00,41,86.50
2010,01,06,00,42,86.50
2010,01,06,00,43,86.50
2010,01,06,00,44,86.50
2010,01,06,00,45,86.50
2010,01,06,00,46,86.50
2010,01,06,00,47,86.50
2010,01,06,00,48,86.50
2010,01,06,00,49,83.50
2010,01,06,00,50,83.50
2010,01,06,00,51,83.50
2010,01,06,00,52,83.50
2010,01,06,00,53,83.50
2010,01,06,00,54,83.50
2010,01,06,00,55,83.50
2010,01,06,00,56,83.50
2010,01,06,00,57,83.50
2010,01,06,00,58,83.50
2010,01,06,00,59,83.50
2010,01,06,01,00,83.50
2010,01,06,01,01,83.50
2010,01,06,01,02,83.50
2010,01,06,01,03,83.50
2010,01,06,01,04,77.40
2010,01,06,01,05,77.40
2010,01,06,01,06,77.40
2010,01,06,01,07,77.40
2010,01,06,01,08,77.40
2010,01,06,01,09,77.40
2010,01,06,01,10,77.40
2010,01,06,01,11,77.40
2010,01,06,01,12,77.40
2010,01,06,01,13,77.40
2010,01,06,01,14,77.40
2010,01,06,01,15,77.40
2010,01,06,01,16,77.40
2010,01,06,01,17,77.40
2010,01,06,01,18,77.40
2010,01,06,01,19,74.50
2010,01,06,01,20,74.50
2010,01,06,01,21,74.50
2010,01,06,01,22,74.50
2010,01,06,01,23,74.50
2010,01,06,01,24,74.50
2010,01,06,01,25,74.50
2010,01,06,01,26,74.50
2010,01,06,01,27,74.50
2010,01,06,01,28,74.50
2010,01,06,01,29,74.50
2010,01,06,01,30,74.50
2010,01,06,01,31,74.50
2010,01,06,01,32,74.50
2010,01,06,01,33,74.50
2010,01,06,01,34,83.50
2010,01,06,01,35,83.50
2010,01,06,01,36,83.50
2010,01,06,01,37,83.50
2010,01,06,01,38,83.50
2010,01,06,01,39,83.50
2010,01,06,01,40,83.50
2010,01,06,01,41,83.50
2010,01,06,01,42,83.50
2010,01,06,01,43,83.50
2010,01,06,01,44,83.50
2010,01,06,01,45,83.50
2010,01,06,01,46,83.50
2010,01,06,01,47,83.50
2010,01,06,01,48,83.50
2010,01,06,01,49,68.50
2010,01,06,01,50,68.50
2010,01,06,01,51,68.50
2010,01,06,01,52,68.50
2010,01,06,01,53,68.50
2010,01,06,01,54,68.50
2010,01,06,01,55,68.50
2010,01,06,01,56,68.50
2010,01,06,01,57,68.50
2010,01,06,01,58,68.50
2010,01,06,01,59,68.50
2010,01,06,02,00,68.50
2010,01,06,02,01,68.50
2010,01,06,02,02,68.50
2010,01,06,02,03,68.50
2010,01,06,02,04,65.60
2010,01,06,02,05,65.60
2010,01,06,02,06,65.60
2010,01,06,02,07,65.60
2010,01,06,02,08,65.60
2010,01,06,02,09,65.60
2010,01,06,02,10,65.60
2010,01,06,02,11,65.60
2010,01,06,02,12,65.60
2010,01,06,02,13,65.60
2010,01,06,02,14,65.60
2010,01,06,02,15,65.60
2010,01,06,02,16,65.60
2010,01,06,02,17,65.60
2010,01,06,02,18,65.60
2010,01,06,02,19,86.50
2010,01,06,02,20,86.50
2010,01,06,02,21,86.50
2010,01,06,02,22,86.50
2010,01,06,02,23,86.50
2010,01,06,02,24,86.50
2010,01,06,02,25,86.50
2010,01,06,02,26,86.50
2010,01,06,02,27,86.50
2010,01,06,02,28,86.50
2010,01,06,02,29,86.50
2010,01,06,02,30,86.50
2010,01,06,02,31,86.50
2010,01,06,02,32,86.50
2010,01,06,02,33,86.50
2010,01,06,02,34,83.50
2010,01,06,02,35,83.50
2010,01,06,02,36,83.50
2010,01,06,02,37,83.50
2010,01,06,02,38,83.50
2010,01,06,02,39,83.50
2010,01,06,02,40,83.50
2010,01,06,02,41,83.50
2010,01,06,02,42,83.50
2010,01,06,02,43,83.50
2010,01,06,02,44,83.50
2010,01,06,02,45,83.50
2010,01,06,02,46,83.50
2010,01,06,02,47,83.50
2010,01,06,02,48,83.50
2010,01,06,02,49,74.50
2010,01,06,02,50,74.50
2010,01,06,02,51,74.50
2010,01,06,02,52,74.50
2010,01,06,02,53,74.50
2010,01,06,02,54,74.50
2010,01,06,02,55,74.50
2010,01,06,02,56,74.50
2010,01,06,02,57,74.50
2010,01,06,02,58,74.50
2010,01,06,02,59,74.50
2010,01,06,03,00,74.50
2010,01,06,03,01,74.50
2010,01,06,03,02,74.50
2010,01,06,03,03,74.50
2010,01,06,03,04,77.40
2010,01,06,03,05,77.40
2010,01,06,03,06,77.40
2010,01,06,03,07,77.40
2010,01,06,03,08,77.40
2010,01,06,03,09,77.40
2010,01,06,03,10,77.40
2010,01,06,03,11,77.40
2010,01,06,03,12,77.40
2010,01,06,03,13,77.40
2010,01,06,03,14,77.40
2010,01,06,03,15,77.40
2010,01,06,03,16,77.40
2010,01,06,03,17,77.40
2010,01,06,03,18,77.40
2010,01,06,03,19,68.50
2010,01,06,03,20,68.50
2010,01,06,03,21,68.50
2010,01,06,03,22,68.50
2010,01,06,03,23,68.50
2010,01,06,03,24,68.50
2010,01,06,03,25,68.50
2010,01,06,03,26,68.50
2010,01,06,03,27,68.50
2010,01,06,03,28,68.50
2010,01,06,03,29,68.50
2010,01,06,03,30,68.50
2010,01,06,03,31,68.50
2010,01,06,03,32,68.50
2010,01,06,03,33,68.50
2010,01,06,03,34,80.60
2010,01,06,03,35,80.60
2010,01,06,03,36,80.60
2010,01,06,03,37,80.60
2010,01,06,03,38,80.60
2010,01,06,03,39,80.60
2010,01,06,03,40,80.60
2010,01,06,03,41,80.60
2010,01,06,03,42,80.60
2010,01,06,03,43,80.60
2010,01,06,03,44,80.60
2010,01,06,03,45,80.60
2010,01,06,03,46,80.60
2010,01,06,03,47,80.60
2010,01,06,03,48,80.60
2010,01,06,03,49,86.50
2010,01,06,03,50,86.50
2010,01,06,03,51,86.50
2010,01,06,03,52,86.50
2010,01,06,03,53,86.50
2010,01,06,03,54,86.50
2010,01,06,03,55,86.50
2010,01,06,03,56,86.50
2010,01,06,03,57,86.50
2010,01,06,03,58,86.50
2010,01,06,03,59,86.50
2010,01,06,04,00,86.50
2010,01,06,04,01,86.50
2010,01,06,04,02,86.50
2010,01,06,04,03,86.50
2010,01,06,04,04,74.50
2010,01,06,04,05,74.50
2010,01,06,04,06,74.50
2010,01,06,04,07,74.50
2010,01,06,04,08,74.50
2010,01,06,04,09,74.50
2010,01,06,04,10,74.50
2010,01,06,04,11,74.50
2010,01,06,04,12,74.50
2010,01,06,04,13,74.50
2010,01,06,04,14,74.50
2010,01,06,04,15,74.50
2010,01,06,04,16,74.50
2010,01,06,04,17,74.50
2010,01,06,04,18,74.50
2010,01,06,04,19,80.60
2010,01,06,04,20,80.60
2010,01,06,04,21,80.60
2010,01,06,04,22,80.60
2010,01,06,04,23,80.60
2010,01,06,04,24,80.60
2010,01,06,04,25,80.60
2010,01,06,04,26,80.60
2010,01,06,04,27,80.60
2010,01,06,04,28,80.60
2010,01,06,04,29,80.60
2010,01,06,04,30,80.60
2010,01,06,04,31,80.60
2010,01,06,04,32,80.60
2010,01,06,04,33,80.60
2010,01,06,04,34,74.50
2010,01,06,04,35,74.50
2010,01,06,04,36,74.50
2010,01,06,04,37,74.50
2010,01,06,04,38,74.50
2010,01,06,04,39,74.50
2010,01,06,04,40,74.50
2010,01,06,04,41,74.50
2010,01,06,04,42,74.50
2010,01,06,04,43,74.50
2010,01,06,04,44,74.50
2010,01,06,04,45,74.50
2010,01,06,04,46,74.50
2010,01,06,04,47,74.50
2010,01,06,04,48,74.50
2010,01,06,04,49,59.60
2010,01,06,04,50,59.60
2010,01,06,04,51,59.60
2010,01,06,04,52,59.60
2010,01,06,04,53,59.60
2010,01,06,04,54,59.60
2010,01,06,04,55,59.60
2010,01,06,04,56,59.60
2010,01,06,04,57,59.60
2010,01,06,04,58,59.60
2010,01,06,04,59,59.60
2010,01,06,05,00,59.60
2010,01,06,05,01,59.60
2010,01,06,05,02,59.60
2010,01,06,05,03,59.60
2010,01,06,05,04,41.70
2010,01,06,05,05,41.70
2010,01,06,05,06,41.70
2010,01,06,05,07,41.70
2010,01,06,05,08,41.70
2010,01,06,05,09,41.70
2010,01,06,05,10,41.70
2010,01,06,05,11,41.70
2010,01,06,05,12,41.70
2010,01,06,05,13,41.70
2010,01,06,05,14,41.70
2010,01,06,05,15,41.70
2010,01,06,05,16,41.70
2010,01,06,05,17,41.70
2010,01,06,05,18,41.70
2010,01,06,05,19,47.60
2010,01,06,05,20,47.60
2010,01,06,05,21,47.60
2010,01,06,05,22,47.60
2010,01,06,05,23,47.60
2010,01,06,05,24,47.60
2010,01,06,05,25,47.60
2010,01,06,05,26,47.60
2010,01,06,05,27,47.60
2010,01,06,05,28,47.60
2010,01,06,05,29,47.60
2010,01,06,05,30,47.60
2010,01,06,05,31,47.60
2010,01,06,05,32,47.60
2010,01,06,05,33,47.60
2010,01,06,05,34,59.60
2010,01,06,05,35,59.60
2010,01,06,05,36,59.60
2010,01,06,05,37,59.60
2010,01,06,05,38,59.60
2010,01,06,05,39,59.60
2010,01,06,05,40,59.60
2010,01,06,05,41,59.60
2010,01,06,05,42,59.60
2010,01,06,05,43,59.60
2010,01,06,05,44,59.60
2010,01,06,05,45,59.60
2010,01,06,05,46,59.60
2010,01,06,05,47,59.60
2010,01,06,05,48,59.60
2010,01,06,05,49,71.50
2010,01,06,05,50,71.50
2010,01,06,05,51,71.50
2010,01,06,05,52,71.50
2010,01,06,05,53,71.50
2010,01,06,05,54,71.50
2010,01,06,05,55,71.50
2010,01,06,05,56,71.50
2010,01,06,05,57,71.50
2010,01,06,05,58,71.50
2010,01,06,05,59,71.50
2010,01,06,06,00,71.50
2010,01,06,06,01,71.50
2010,01,06,06,02,71.50
2010,01,06,06,03,71.50
2010,01,06,06,04,74.50
2010,01,06,06,05,74.50
2010,01,06,06,06,74.50
2010,01,06,06,07,74.50
2010,01,06,06,08,74.50
2010,01,06,06,09,74.50
2010,01,06,06,10,74.50
2010,01,06,06,11,74.50
2010,01,06,06,12,74.50
2010,01,06,06,13,74.50
2010,01,06,06,14,74.50
2010,01,06,06,15,74.50
2010,01,06,06,16,74.50
2010,01,06,06,17,74.50
2010,01,06,06,18,74.50
2010,01,06,06,19,80.60
2010,01,06,06,20,80.60
2010,01,06,06,21,80.60
2010,01,06,06,22,80.60
2010,01,06,06,23,80.60
2010,01,06,06,24,80.60
2010,01,06,06,25,80.60
2010,01,06,06,26,80.60
2010,01,06,06,27,80.60
2010,01,06,06,28,80.60
2010,01,06,06,29,80.60
2010,01,06,06,30,80.60
2010,01,06,06,31,80.60
2010,01,06,06,32,80.60
2010,01,06,06,33,80.60
2010,01,06,06,34,65.60
2010,01,06,06,35,65.60
2010,01,06,06,36,65.60
2010,01,06,06,37,65.60
2010,01,06,06,38,65.60
2010,01,06,06,39,65.60
2010,01,06,06,40,65.60
2010,01,06,06,41,65.60
2010,01,06,06,42,65.60
2010,01,06,06,43,65.60
2010,01,06,06,44,65.60
2010,01,06,06,45,65.60
2010,01,06,06,46,65.60
2010,01,06,06,47,65.60
2010,01,06,06,48,65.60
2010,01,06,06,49,59.60
2010,01,06,06,50,59.60
2010,01,06,06,51,59.60
2010,01,06,06,52,59.60
2010,01,06,06,53,59.60
2010,01,06,06,54,59.60
2010,01,06,06,55,59.60
2010,01,06,06,56,59.60
2010,01,06,06,57,59.60
2010,01,06,06,58,59.60
2010,01,06,06,59,59.60
2010,01,06,07,00,59.60
2010,01,06,07,01,59.60
2010,01,06,07,02,59.60
2010,01,06,07,03,59.60
2010,01,06,07,04,59.60
2010,01,06,07,05,59.60
2010,01,06,07,06,59.60
2010,01,06,07,07,59.60
2010,01,06,07,08,59.60
2010,01,06,07,09,59.60
2010,01,06,07,10,59.60
2010,01,06,07,11,59.60
2010,01,06,07,12,59.60
2010,01,06,07,13,59.60
2010,01,06,07,14,59.60
2010,01,06,07,15,59.60
2010,01,06,07,16,59.60
2010,01,06,07,17,59.60
2010,01,06,07,18,59.60
2010,01,06,07,19,59.60
2010,01,06,07,20,59.60
2010,01,06,07,21,59.60
2010,01,06,07,22,59.60
2010,01,06,07,23,59.60
2010,01,06,07,24,59.60
2010,01,06,07,25,59.60
2010,01,06,07,26,59.60
2010,01,06,07,27,59.60
2010,01,06,07,28,59.60
2010,01,06,07,29,59.60
2010,01,06,07,30,59.60
2010,01,06,07,31,59.60
2010,01,06,07,32,59.60
2010,01,06,07,33,59.60
2010,01,06,07,34,56.70
2010,01,06,07,35,56.70
2010,01,06,07,36,56.70
2010,01,06,07,37,56.70
2010,01,06,07,38,56.70
2010,01,06,07,39,56.70
2010,01,06,07,40,56.70
2010,01,06,07,41,56.70
2010,01,06,07,42,56.70
2010,01,06,07,43,56.70
2010,01,06,07,44,56.70
2010,01,06,07,45,56.70
2010,01,06,07,46,56.70
2010,01,06,07,47,56.70
2010,01,06,07,48,56.70
2010,01,06,07,49,44.60
2010,01,06,07,50,44.60
2010,01,06,07,51,44.60
2010,01,06,07,52,44.60
2010,01,06,07,53,44.60
2010,01,06,07,54,44.60
2010,01,06,07,55,44.60
2010,01,06,07,56,44.60
2010,01,06,07,57,44.60
2010,01,06,07,58,44.60
2010,01,06,07,59,44.60
2010,01,06,08,00,44.60
2010,01,06,08,01,44.60
2010,01,06,08,02,44.60
2010,01,06,08,03,44.60
2010,01,06,08,04,56.70
2010,01,06,08,05,56.70
2010,01,06,08,06,56.70
2010,01,06,08,07,56.70
2010,01,06,08,08,56.70
2010,01,06,08,09,56.70
2010,01,06,08,10,56.70
2010,01,06,08,11,56.70
2010,01,06,08,12,56.70
2010,01,06,08,13,56.70
2010,01,06,08,14,56.70
2010,01,06,08,15,56.70
2010,01,06,08,16,56.70
2010,01,06,08,17,56.70
2010,01,06,08,18,56.70
2010,01,06,08,19,68.50
2010,01,06,08,20,68.50
2010,01,06,08,21,68.50
2010,01,06,08,22,68.50
2010,01,06,08,23,68.50
2010,01,06,08,24,68.50
2010,01,06,08,25,68.50
2010,01,06,08,26,68.50
2010,01,06,08,27,68.50
2010,01,06,08,28,68.50
2010,01,06,08,29,68.50
2010,01,06,08,30,68.50
2010,01,06,08,31,68.50
2010,01,06,08,32,68.50
2010,01,06,08,33,68.50
2010,01,06,08,34,56.70
2010,01,06,08,35,56.70
2010,01,06,08,36,56.70
2010,01,06,08,37,56.70
2010,01,06,08,38,56.70
2010,01,06,08,39,56.70
2010,01,06,08,40,56.70
2010,01,06,08,41,56.70
2010,01,06,08,42,56.70
2010,01,06,08,43,56.70
2010,01,06,08,44,56.70
2010,01,06,08,45,56.70
2010,01,06,08,46,56.70
2010,01,06,08,47,56.70
2010,01,06,08,48,56.70
2010,01,06,08,49,56.70
2010,01,06,08,50,56.70
2010,01,06,08,51,56.70
2010,01,06,08,52,56.70
2010,01,06,08,53,56.70
2010,01,06,08,54,56.70
2010,01,06,08,55,56.70
2010,01,06,08,56,56.70
2010,01,06,08,57,56.70
2010,01,06,08,58,56.70
2010,01,06,08,59,56.70
2010,01,06,09,00,56.70
2010,01,06,09,01,56.70
2010,01,06,09,02,56.70
2010,01,06,09,03,56.70
2010,01,06,09,04,68.50
2010,01,06,09,05,68.50
2010,01,06,09,06,68.50
2010,01,06,09,07,68.50
2010,01,06,09,08,68.50
2010,01,06,09,09,68.50
2010,01,06,09,10,68.50
2010,01,06,09,11,68.50
2010,01,06,09,12,68.50
2010,01,06,09,13,68.50
2010,01,06,09,14,68.50
2010,01,06,09,15,68.50
2010,01,06,09,16,68.50
2010,01,06,09,17,68.50
2010,01,06,09,18,68.50
2010,01,06,09,19,65.60
2010,01,06,09,20,65.60
2010,01,06,09,21,65.60
2010,01,06,09,22,65.60
2010,01,06,09,23,65.60
2010,01,06,09,24,65.60
2010,01,06,09,25,65.60
2010,01,06,09,26,65.60
2010,01,06,09,27,65.60
2010,01,06,09,28,65.60
2010,01,06,09,29,65.60
2010,01,06,09,30,65.60
2010,01,06,09,31,65.60
2010,01,06,09,32,65.60
2010,01,06,09,33,65.60
2010,01,06,09,34,71.50
2010,01,06,09,35,71.50
2010,01,06,09,36,71.50
2010,01,06,09,37,71.50
2010,01,06,09,38,71.50
2010,01,06,09,39,71.50
2010,01,06,09,40,71.50
2010,01,06,09,41,71.50
2010,01,06,09,42,71.50
2010,01,06,09,43,71.50
2010,01,06,09,44,71.50
2010,01,06,09,45,71.50
2010,01,06,09,46,71.50
2010,01,06,09,47,71.50
2010,01,06,09,48,71.50
2010,01,06,09,49,56.70
2010,01,06,09,50,56.70
2010,01,06,09,51,56.70
2010,01,06,09,52,56.70
2010,01,06,09,53,56.70
2010,01,06,09,54,56.70
2010,01,06,09,55,56.70
2010,01,06,09,56,56.70
2010,01,06,09,57,56.70
2010,01,06,09,58,56.70
2010,01,06,09,59,56.70
2010,01,06,10,00,56.70
2010,01,06,10,01,56.70
2010,01,06,10,02,56.70
2010,01,06,10,03,56.70
2010,01,06,10,04,53.70
2010,01,06,10,05,53.70
2010,01,06,10,06,53.70
2010,01,06,10,07,53.70
2010,01,06,10,08,53.70
2010,01,06,10,09,53.70
2010,01,06,10,10,53.70
2010,01,06,10,11,53.70
2010,01,06,10,12,53.70
2010,01,06,10,13,53.70
2010,01,06,10,14,53.70
2010,01,06,10,15,53.70
2010,01,06,10,16,53.70
2010,01,06,10,17,53.70
2010,01,06,10,18,53.70
2010,01,06,10,19,59.60
2010,01,06,10,20,59.60
2010,01,06,10,21,59.60
2010,01,06,10,22,59.60
2010,01,06,10,23,59.60
2010,01,06,10,24,59.60
2010,01,06,10,25,59.60
2010,01,06,10,26,59.60
2010,01,06,10,27,59.60
2010,01,06,10,28,59.60
2010,01,06,10,29,59.60
2010,01,06,10,30,59.60
2010,01,06,10,31,59.60
2010,01,06,10,32,59.60
2010,01,06,10,33,59.60
2010,01,06,10,34,56.70
2010,01,06,10,35,56.70
2010,01,06,10,36,56.70
2010,01,06,10,37,56.70
2010,01,06,10,38,56.70
2010,01,06,10,39,56.70
2010,01,06,10,40,56.70
2010,01,06,10,41,56.70
2010,01,06,10,42,56.70
2010,01,06,10,43,56.70
2010,01,06,10,44,56.70
2010,01,06,10,45,56.70
2010,01,06,10,46,56.70
2010,01,06,10,47,56.70
2010,01,06,10,48,56.70
2010,01,06,10,49,56.70
2010,01,06,10,50,56.70
2010,01,06,10,51,56.70
2010,01,06,10,52,56.70
2010,01,06,10,53,56.70
2010,01,06,10,54,56.70
2010,01,06,10,55,56.70
2010,01,06,10,56,56.70
2010,01,06,10,57,56.70
2010,01,06,10,58,56.70
2010,01,06,10,59,56.70
2010,01,06,11,00,56.70
2010,01,06,11,01,56.70
2010,01,06,11,02,56.70
2010,01,06,11,03,56.70
2010,01,06,11,04,47.60
2010,01,06,11,05,47.60
2010,01,06,11,06,47.60
2010,01,06,11,07,47.60
2010,01,06,11,08,47.60
2010,01,06,11,09,47.60
2010,01,06,11,10,47.60
2010,01,06,11,11,47.60
2010,01,06,11,12,47.60
2010,01,06,11,13,47.60
2010,01,06,11,14,47.60
2010,01,06,11,15,47.60
2010,01,06,11,16,47.60
2010,01,06,11,17,47.60
2010,01,06,11,18,47.60
2010,01,06,11,19,44.60
2010,01,06,11,20,44.60
2010,01,06,11,21,44.60
2010,01,06,11,22,44.60
2010,01,06,11,23,44.60
2010,01,06,11,24,44.60
2010,01,06,11,25,44.60
2010,01,06,11,26,44.60
2010,01,06,11,27,44.60
2010,01,06,11,28,44.60
2010,01,06,11,29,44.60
2010,01,06,11,30,44.60
2010,01,06,11,31,44.60
2010,01,06,11,32,44.60
2010,01,06,11,33,44.60
2010,01,06,11,34,56.70
2010,01,06,11,35,56.70
2010,01,06,11,36,56.70
2010,01,06,11,37,56.70
2010,01,06,11,38,56.70
2010,01,06,11,39,56.70
2010,01,06,11,40,56.70
2010,01,06,11,41,56.70
2010,01,06,11,42,56.70
2010,01,06,11,43,56.70
2010,01,06,11,44,56.70
2010,01,06,11,45,56.70
2010,01,06,11,46,56.70
2010,01,06,11,47,56.70
2010,01,06,11,48,56.70
2010,01,06,11,49,65.60
2010,01,06,11,50,65.60
2010,01,06,11,51,65.60
2010,01,06,11,52,65.60
2010,01,06,11,53,65.60
2010,01,06,11,54,65.60
2010,01,06,11,55,65.60
2010,01,06,11,56,65.60
2010,01,06,11,57,65.60
2010,01,06,11,58,65.60
2010,01,06,11,59,65.60
2010,01,06,12,00,65.60
2010,01,06,12,01,65.60
2010,01,06,12,02,65.60
2010,01,06,12,03,65.60
2010,01,06,12,04,56.70
2010,01,06,12,05,56.70
2010,01,06,12,06,56.70
2010,01,06,12,07,56.70
2010,01,06,12,08,56.70
2010,01,06,12,09,56.70
2010,01,06,12,10,56.70
2010,01,06,12,11,56.70
2010,01,06,12,12,56.70
2010,01,06,12,13,56.70
2010,01,06,12,14,56.70
2010,01,06,12,15,56.70
2010,01,06,12,16,56.70
2010,01,06,12,17,56.70
2010,01,06,12,18,56.70
2010,01,06,12,19,68.50
2010,01,06,12,20,68.50
2010,01,06,12,21,68.50
2010,01,06,12,22,68.50
2010,01,06,12,23,68.50
2010,01,06,12,24,68.50
2010,01,06,12,25,68.50
2010,01,06,12,26,68.50
2010,01,06,12,27,68.50
2010,01,06,12,28,68.50
2010,01,06,12,29,68.50
2010,01,06,12,30,68.50
2010,01,06,12,31,68.50
2010,01,06,12,32,68.50
2010,01,06,12,33,68.50
2010,01,06,12,34,62.60
2010,01,06,12,35,62.60
2010,01,06,12,36,62.60
2010,01,06,12,37,62.60
2010,01,06,12,38,62.60
2010,01,06,12,39,62.60
2010,01,06,12,40,62.60
2010,01,06,12,41,62.60
2010,01,06,12,42,62.60
2010,01,06,12,43,62.60
2010,01,06,12,44,62.60
2010,01,06,12,45,62.60
2010,01,06,12,46,62.60
2010,01,06,12,47,62.60
2010,01,06,12,48,62.60
2010,01,06,12,49,65.60
2010,01,06,12,50,65.60
2010,01,06,12,51,65.60
2010,01,06,12,52,65.60
2010,01,06,12,53,65.60
2010,01,06,12,54,65.60
2010,01,06,12,55,65.60
2010,01,06,12,56,65.60
2010,01,06,12,57,65.60
2010,01,06,12,58,65.60
2010,01,06,12,59,65.60
2010,01,06,13,00,65.60
2010,01,06,13,01,65.60
2010,01,06,13,02,65.60
2010,01,06,13,03,65.60
2010,01,06,13,04,56.70
2010,01,06,13,05,56.70
2010,01,06,13,06,56.70
2010,01,06,13,07,56.70
2010,01,06,13,08,56.70
2010,01,06,13,09,56.70
2010,01,06,13,10,56.70
2010,01,06,13,11,56.70
2010,01,06,13,12,56.70
2010,01,06,13,13,56.70
2010,01,06,13,14,56.70
2010,01,06,13,15,56.70
2010,01,06,13,16,56.70
2010,01,06,13,17,56.70
2010,01,06,13,18,56.70
2010,01,06,13,19,62.60
2010,01,06,13,20,62.60
2010,01,06,13,21,62.60
2010,01,06,13,22,62.60
2010,01,06,13,23,62.60
2010,01,06,13,24,62.60
2010,01,06,13,25,62.60
2010,01,06,13,26,62.60
2010,01,06,13,27,62.60
2010,01,06,13,28,62.60
2010,01,06,13,29,62.60
2010,01,06,13,30,62.60
2010,01,06,13,31,62.60
2010,01,06,13,32,62.60
2010,01,06,13,33,62.60
2010,01,06,13,34,74.50
2010,01,06,13,35,74.50
2010,01,06,13,36,74.50
2010,01,06,13,37,74.50
2010,01,06,13,38,74.50
2010,01,06,13,39,74.50
2010,01,06,13,40,74.50
2010,01,06,13,41,74.50
2010,01,06,13,42,74.50
2010,01,06,13,43,74.50
2010,01,06,13,44,74.50
2010,01,06,13,45,74.50
2010,01,06,13,46,74.50
2010,01,06,13,47,74.50
2010,01,06,13,48,74.50
2010,01,06,13,49,68.50
2010,01,06,13,50,68.50
2010,01,06,13,51,68.50
2010,01,06,13,52,68.50
2010,01,06,13,53,68.50
2010,01,06,13,54,68.50
2010,01,06,13,55,68.50
2010,01,06,13,56,68.50
2010,01,06,13,57,68.50
2010,01,06,13,58,68.50
2010,01,06,13,59,68.50
2010,01,06,14,00,68.50
2010,01,06,14,01,68.50
2010,01,06,14,02,68.50
2010,01,06,14,03,68.50
2010,01,06,14,04,62.60
2010,01,06,14,05,62.60
2010,01,06,14,06,62.60
2010,01,06,14,07,62.60
2010,01,06,14,08,62.60
2010,01,06,14,09,62.60
2010,01,06,14,10,62.60
2010,01,06,14,11,62.60
2010,01,06,14,12,62.60
2010,01,06,14,13,62.60
2010,01,06,14,14,62.60
2010,01,06,14,15,62.60
2010,01,06,14,16,62.60
2010,01,06,14,17,62.60
2010,01,06,14,18,62.60
2010,01,06,14,19,65.60
2010,01,06,14,20,65.60
2010,01,06,14,21,65.60
2010,01,06,14,22,65.60
2010,01,06,14,23,65.60
2010,01,06,14,24,65.60
2010,01,06,14,25,65.60
2010,01,06,14,26,65.60
2010,01,06,14,27,65.60
2010,01,06,14,28,65.60
2010,01,06,14,29,65.60
2010,01,06,14,30,65.60
2010,01,06,14,31,65.60
2010,01,06,14,32,65.60
2010,01,06,14,33,65.60
2010,01,06,14,34,71.50
2010,01,06,14,35,71.50
2010,01,06,14,36,71.50
2010,01,06,14,37,71.50
2010,01,06,14,38,71.50
2010,01,06,14,39,71.50
2010,01,06,14,40,71.50
2010,01,06,14,41,71.50
2010,01,06,14,42,71.50
2010,01,06,14,43,71.50
2010,01,06,14,44,71.50
2010,01,06,14,45,71.50
2010,01,06,14,46,71.50
2010,01,06,14,47,71.50
2010,01,06,14,48,71.50
2010,01,06,14,49,71.50
2010,01,06,14,50,71.50
2010,01,06,14,51,71.50
2010,01,06,14,52,71.50
2010,01,06,14,53,71.50
2010,01,06,14,54,71.50
2010,01,06,14,55,71.50
2010,01,06,14,56,71.50
2010,01,06,14,57,71.50
2010,01,06,14,58,71.50
2010,01,06,14,59,71.50
2010,01,06,15,00,71.50
2010,01,06,15,01,71.50
2010,01,06,15,02,71.50
2010,01,06,15,03,71.50
2010,01,06,15,04,59.60
2010,01,06,15,05,59.60
2010,01,06,15,06,59.60
2010,01,06,15,07,59.60
2010,01,06,15,08,59.60
2010,01,06,15,09,59.60
2010,01,06,15,10,59.60
2010,01,06,15,11,59.60
2010,01,06,15,12,59.60
2010,01,06,15,13,59.60
2010,01,06,15,14,59.60
2010,01,06,15,15,59.60
2010,01,06,15,16,59.60
2010,01,06,15,17,59.60
2010,01,06,15,18,59.60
2010,01,06,15,19,68.50
2010,01,06,15,20,68.50
2010,01,06,15,21,68.50
2010,01,06,15,22,68.50
2010,01,06,15,23,68.50
2010,01,06,15,24,68.50
2010,01,06,15,25,68.50
2010,01,06,15,26,68.50
2010,01,06,15,27,68.50
2010,01,06,15,28,68.50
2010,01,06,15,29,68.50
2010,01,06,15,30,68.50
2010,01,06,15,31,68.50
2010,01,06,15,32,68.50
2010,01,06,15,33,68.50
2010,01,06,15,34,71.50
2010,01,06,15,35,71.50
2010,01,06,15,36,71.50
2010,01,06,15,37,71.50
2010,01,06,15,38,71.50
2010,01,06,15,39,71.50
2010,01,06,15,40,71.50
2010,01,06,15,41,71.50
2010,01,06,15,42,71.50
2010,01,06,15,43,71.50
2010,01,06,15,44,71.50
2010,01,06,15,45,71.50
2010,01,06,15,46,71.50
2010,01,06,15,47,71.50
2010,01,06,15,48,71.50
2010,01,06,15,49,74.50
2010,01,06,15,50,74.50
2010,01,06,15,51,74.50
2010,01,06,15,52,74.50
2010,01,06,15,53,74.50
2010,01,06,15,54,74.50
2010,01,06,15,55,74.50
2010,01,06,15,56,74.50
2010,01,06,15,57,74.50
2010,01,06,15,58,74.50
2010,01,06,15,59,74.50
2010,01,06,16,00,74.50
2010,01,06,16,01,74.50
2010,01,06,16,02,74.50
2010,01,06,16,03,74.50
2010,01,06,16,04,71.50
2010,01,06,16,05,71.50
2010,01,06,16,06,71.50
2010,01,06,16,07,71.50
2010,01,06,16,08,71.50
2010,01,06,16,09,71.50
2010,01,06,16,10,71.50
2010,01,06,16,11,71.50
2010,01,06,16,12,71.50
2010,01,06,16,13,71.50
2010,01,06,16,14,71.50
2010,01,06,16,15,71.50
2010,01,06,16,16,71.50
2010,01,06,16,17,71.50
2010,01,06,16,18,71.50
2010,01,06,16,19,74.50
2010,01,06,16,20,74.50
2010,01,06,16,21,74.50
2010,01,06,16,22,74.50
2010,01,06,16,23,74.50
2010,01,06,16,24,74.50
2010,01,06,16,25,74.50
2010,01,06,16,26,74.50
2010,01,06,16,27,74.50
2010,01,06,16,28,74.50
2010,01,06,16,29,74.50
2010,01,06,16,30,74.50
2010,01,06,16,31,74.50
2010,01,06,16,32,74.50
2010,01,06,16,33,74.50
2010,01,06,16,34,68.50
2010,01,06,16,35,68.50
2010,01,06,16,36,68.50
2010,01,06,16,37,68.50
2010,01,06,16,38,68.50
2010,01,06,16,39,68.50
2010,01,06,16,40,68.50
2010,01,06,16,41,68.50
2010,01,06,16,42,68.50
2010,01,06,16,43,68.50
2010,01,06,16,44,68.50
2010,01,06,16,45,68.50
2010,01,06,16,46,68.50
2010,01,06,16,47,68.50
2010,01,06,16,48,68.50
2010,01,06,16,49,86.50
2010,01,06,16,50,86.50
2010,01,06,16,51,86.50
2010,01,06,16,52,86.50
2010,01,06,16,53,86.50
2010,01,06,16,54,86.50
2010,01,06,16,55,86.50
2010,01,06,16,56,86.50
2010,01,06,16,57,86.50
2010,01,06,16,58,86.50
2010,01,06,16,59,86.50
2010,01,06,17,00,86.50
2010,01,06,17,01,86.50
2010,01,06,17,02,86.50
2010,01,06,17,03,86.50
2010,01,06,17,04,71.50
2010,01,06,17,05,71.50
2010,01,06,17,06,71.50
2010,01,06,17,07,71.50
2010,01,06,17,08,71.50
2010,01,06,17,09,71.50
2010,01,06,17,10,71.50
2010,01,06,17,11,71.50
2010,01,06,17,12,71.50
2010,01,06,17,13,71.50
2010,01,06,17,14,71.50
2010,01,06,17,15,71.50
2010,01,06,17,16,71.50
2010,01,06,17,17,71.50
2010,01,06,17,18,71.50
2010,01,06,17,19,83.50
2010,01,06,17,20,83.50
2010,01,06,17,21,83.50
2010,01,06,17,22,83.50
2010,01,06,17,23,83.50